QPF
0.00 0.00 0.00 0.00 0.00 0.00 0.00 0.00 0.00 0.00 0.00 0.00 0.00 0.00 0.00 0.00 0.00 0.00 0.00 0.00 0.00 0.00 0.00 0.00 0.00 0.00 0.00 0.00 0.00 0.00 0.00 0.00 0.00 0.01 0.01 0.00 0.00 0.00 0.00 0.00 0.00 0.00 0.00 0.00
0.00 0.00 0.00 0.00 0.00 0.00 0.00 0.00 0.00 0.00 0.00 0.00 0.00 0.00 0.00 0.00 0.00 0.00 0.00 0.00 0.00 0.00 0.00 0.00 0.00 0.00 0.00 0.00 0.00 0.00 0.00 0.00 0.00 0.01 0.01 0.01 0.00 0.00 0.00 0.00 0.00 0.00 0.00 0.00
0.00 0.00 0.00 0.00 0.00 0.00 0.00 0.00 0.00 0.00 0.00 0.00 0.00 0.00 0.00 0.00 0.00 0.00 0.00 0.00 0.00 0.00 0.00 0.00 0.00 0.00 0.00 0.00 0.00 0.00 0.00 0.00 0.00 0.00 0.00 0.00 0.00 0.00 0.00 0.00 0.00 0.00 0.00 0.00
0.00 0.00 0.00 0.00 0.00 0.00 0.00 0.00 0.00 0.00 0.00 0.00 0.00 0.00 0.00 0.00 0.00 0.00 0.00 0.00 0.00 0.00 0.00 0.00 0.00 0.00 0.00 0.00 0.00 0.00 0.00 0.00 0.00 0.00 0.00 0.00 0.00 0.00 0.00 0.00 0.00 0.00 0.00 0.00
0.00 0.00 0.00 0.00 0.00 0.00 0.00 0.00 0.00 0.00 0.00 0.00 0.00 0.00 0.00 0.00 0.00 0.00 0.00 0.00 0.00 0.00 0.00 0.00 0.00 0.00 0.00 0.00 0.00 0.00 0.00 0.00 0.00 0.00 0.00 0.00 0.00 0.00 0.00 0.00 0.00 0.00 0.00 0.00
0.00 0.00 0.00 0.00 0.00 0.00 0.00 0.00 0.00 0.00 0.00 0.00 0.00 0.00 0.00 0.00 0.00 0.00 0.00 0.00 0.00 0.00 0.00 0.00 0.00 0.00 0.00 0.00 0.00 0.00 0.00 0.00 0.00 0.00 0.00 0.00 0.00 0.00 0.00 0.00 0.00 0.00 0.00 0.00
0.00 0.00 0.00 0.00 0.00 0.00 0.00 0.00 0.00 0.00 0.00 0.00 0.00 0.00 0.00 0.00 0.00 0.00 0.00 0.00 0.00 0.00 0.00 0.00 0.00 0.00 0.00 0.00 0.00 0.00 0.00 0.00 0.00 0.00 0.00 0.00 0.00 0.00 0.00 0.00 0.00 0.00 0.00 0.00
0.00 0.00 0.00 0.00 0.00 0.00 0.00 0.00 0.00 0.00 0.00 0.00 0.00 0.00 0.00 0.00 0.00 0.00 0.00 0.00 0.00 0.00 0.00 0.00 0.00 0.00 0.00 0.00 0.00 0.00 0.00 0.00 0.00 0.00 0.00 0.00 0.00 0.00 0.00 0.00 0.00 0.00 0.00 0.00
0.00 0.00 0.00 0.00 0.00 0.00 0.00 0.00 0.00 0.00 0.00 0.00 0.00 0.00 0.00 0.00 0.00 0.00 0.00 0.00 0.00 0.00 0.00 0.00 0.00 0.00 0.00 0.00 0.00 0.00 0.00 0.00 0.00 0.00 0.00 0.00 0.00 0.00 0.00 0.00 0.00 0.00 0.00 0.00
0.00 0.00 0.00 0.00 0.00 0.00 0.00 0.00 0.00 0.00 0.00 0.00 0.00 0.00 0.00 0.00 0.00 0.00 0.00 0.00 0.00 0.00 0.00 0.00 0.00 0.00 0.00 0.00 0.00 0.00 0.00 0.00 0.00 0.00 0.00 0.00 0.00 0.00 0.00 0.00 0.00 0.00 0.00 0.00
0.00 0.00 0.00 0.00 0.00 0.00 0.00 0.00 0.00 0.00 0.00 0.00 0.00 0.00 0.00 0.00 0.00 0.00 0.00 0.00 0.00 0.00 0.00 0.00 0.00 0.00 0.00 0.00 0.00 0.00 0.00 0.00 0.00 0.00 0.00 0.00 0.00 0.00 0.00 0.00 0.00 0.00 0.00 0.00
0.00 0.00 0.00 0.00 0.00 0.00 0.00 0.00 0.00 0.00 0.00 0.00 0.00 0.00 0.00 0.00 0.00 0.00 0.00 0.00 0.00 0.00 0.00 0.00 0.00 0.00 0.00 0.00 0.00 0.00 0.00 0.00 0.00 0.00 0.00 0.00 0.00 0.00 0.00 0.00 0.00 0.00 0.00 0.00
0.00 0.00 0.00 0.00 0.00 0.00 0.00 0.00 0.00 0.00 0.00 0.00 0.00 0.00 0.00 0.00 0.00 0.00 0.00 0.00 0.00 0.00 0.00 0.00 0.00 0.00 0.00 0.00 0.00 0.00 0.00 0.00 0.00 0.00 0.00 0.00 0.00 0.00 0.00 0.00 0.00 0.00 0.00 0.00
0.01 0.00 0.00 0.00 0.00 0.00 0.00 0.00 0.00 0.00 0.00 0.00 0.00 0.00 0.00 0.00 0.00 0.00 0.00 0.00 0.00 0.00 0.00 0.00 0.00 0.00 0.00 0.00 0.00 0.00 0.00 0.00 0.00 0.00 0.00 0.00 0.00 0.00 0.00 0.00 0.00 0.00 0.00 0.00
0.00 0.00 0.00 0.00 0.00 0.00 0.00 0.00 0.00 0.00 0.00 0.00 0.00 0.00 0.00 0.00 0.00 0.00 0.00 0.00 0.00 0.00 0.00 0.00 0.00 0.00 0.00 0.00 0.00 0.00 0.00 0.00 0.00 0.00 0.00 0.00 0.00 0.00 0.00 0.00 0.00 0.00 0.00 0.00
0.00 0.00 0.00 0.00 0.00 0.00 0.00 0.00 0.00 0.00 0.00 0.00 0.00 0.00 0.00 0.00 0.00 0.00 0.00 0.00 0.00 0.00 0.00 0.00 0.00 0.00 0.00 0.00 0.00 0.00 0.00 0.00 0.00 0.00 0.00 0.00 0.00 0.00 0.00 0.00 0.00 0.00 0.00 0.00
0.00 0.00 0.00 0.00 0.00 0.00 0.00 0.00 0.00 0.00 0.00 0.00 0.00 0.00 0.00 0.00 0.00 0.00 0.00 0.00 0.00 0.00 0.00 0.00 0.00 0.00 0.00 0.00 0.00 0.00 0.00 0.00 0.00 0.00 0.00 0.00 0.00 0.00 0.00 0.00 0.00 0.00 0.00 0.00
0.00 0.00 0.00 0.00 0.00 0.00 0.00 0.00 0.00 0.00 0.00 0.00 0.00 0.00 0.00 0.00 0.00 0.00 0.00 0.00 0.00 0.00 0.00 0.00 0.00 0.00 0.00 0.00 0.00 0.00 0.00 0.00 0.00 0.00 0.00 0.00 0.00 0.00 0.00 0.00 0.00 0.00 0.00 0.00
0.00 0.00 0.00 0.00 0.00 0.00 0.00 0.00 0.00 0.00 0.00 0.00 0.00 0.00 0.00 0.00 0.00 0.00 0.00 0.00 0.00 0.00 0.00 0.00 0.00 0.00 0.00 0.00 0.00 0.00 0.00 0.00 0.00 0.00 0.00 0.00 0.00 0.00 0.00 0.00 0.00 0.00 0.00 0.00
0.00 0.00 0.00 0.00 0.00 0.00 0.00 0.00 0.00 0.00 0.00 0.00 0.00 0.00 0.00 0.00 0.00 0.00 0.00 0.00 0.00 0.00 0.00 0.00 0.00 0.00 0.00 0.00 0.00 0.00 0.00 0.00 0.00 0.00 0.00 0.00 0.00 0.00 0.00 0.00 0.00 0.00 0.00 0.00
0.00 0.01 0.00 0.00 0.00 0.00 0.00 0.00 0.00 0.00 0.00 0.00 0.00 0.00 0.00 0.00 0.00 0.00 0.00 0.00 0.00 0.00 0.00 0.00 0.00 0.00 0.00 0.00 0.00 0.00 0.00 0.00 0.00 0.00 0.00 0.00 0.00 0.00 0.00 0.00 0.00 0.00 0.00 0.01
0.00 0.00 0.00 0.00 0.00 0.00 0.00 0.00 0.00 0.00 0.00 0.00 0.00 0.00 0.00 0.00 0.00 0.00 0.00 0.00 0.00 0.00 0.00 0.00 0.00 0.00 0.00 0.00 0.00 0.00 0.00 0.00 0.00 0.00 0.00 0.00 0.00 0.00 0.00 0.00 0.00 0.00 0.00 0.00
0.00 0.00 0.00 0.00 0.00 0.00 0.00 0.00 0.00 0.00 0.00 0.00 0.00 0.00 0.00 0.00 0.00 0.00 0.00 0.00 0.00 0.00 0.00 0.00 0.00 0.00 0.00 0.00 0.00 0.00 0.00 0.00 0.00 0.00 0.00 0.00 0.00 0.00 0.00 0.00 0.00 0.00 0.00 0.00
0.01 0.00 0.00 0.00 0.00 0.00 0.00 0.00 0.00 0.00 0.00 0.00 0.00 0.00 0.00 0.00 0.00 0.00 0.00 0.00 0.00 0.00 0.00 0.00 0.00 0.00 0.00 0.00 0.00 0.00 0.00 0.00 0.00 0.00 0.00 0.00 0.00 0.00 0.00 0.00 0.00 0.00 0.00 0.00
0.01 0.00 0.00 0.00 0.00 0.00 0.00 0.00 0.00 0.00 0.00 0.00 0.00 0.00 0.00 0.00 0.00 0.00 0.00 0.00 0.00 0.00 0.00 0.00 0.00 0.00 0.00 0.00 0.00 0.00 0.00 0.00 0.00 0.00 0.00 0.00 0.00 0.00 0.00 0.00 0.00 0.00 0.00 0.00
0.00 0.00 0.00 0.00 0.00 0.00 0.00 0.00 0.00 0.00 0.00 0.00 0.00 0.00 0.00 0.00 0.00 0.00 0.00 0.00 0.00 0.00 0.00 0.00 0.00 0.00 0.00 0.00 0.00 0.00 0.00 0.00 0.00 0.00 0.00 0.00 0.00 0.00 0.00 0.00 0.00 0.00 0.00 0.00
MSLP
1009.65 1009.17 1008.47 1008.27 1008.47 1008.17 1008.21 1007.90 1007.03 1005.81 1005.72 1005.67 1004.75 1003.94 1003.65 1003.94 1004.21 1003.99 1003.90 1004.51 1004.62 1004.45 1004.08 1004.42 1006.18 1006.97 1007.71 1007.88 1008.29 1008.77 1008.78 1009.28 1009.61 1010.27 1010.73 1010.93 1011.06 1011.24 1011.61 1011.71 1011.77 1011.83 1011.95 1012.24
1009.30 1008.20 1007.90 1007.96 1008.11 1008.11 1007.94 1007.46 1006.22 1005.60 1005.03 1005.27 1004.41 1003.50 1003.02 1003.81 1003.68 1003.28 1003.55 1003.92 1003.93 1003.98 1004.76 1005.46 1006.09 1007.10 1007.52 1008.14 1008.66 1008.88 1009.20 1009.52 1009.83 1010.37 1010.61 1010.84 1010.90 1011.58 1011.60 1011.73 1011.66 1011.64 1011.66 1011.93
1007.38 1006.98 1006.95 1007.64 1007.47 1007.34 1007.03 1006.57 1005.79 1005.44 1004.91 1004.53 1004.39 1003.72 1003.35 1003.13 1003.55 1003.40 1003.83 1003.68 1004.07 1003.89 1004.73 1005.61 1005.92 1006.87 1007.64 1008.34 1008.63 1008.79 1009.33 1009.79 1009.94 1010.44 1010.91 1011.33 1011.50 1011.70 1011.91 1011.82 1011.84 1011.92 1011.94 1011.98
1006.70 1006.45 1006.62 1006.71 1006.46 1006.35 1005.71 1005.73 1005.51 1005.13 1005.01 1003.85 1004.43 1003.10 1003.13 1003.40 1003.13 1003.11 1003.52 1003.75 1003.88 1004.32 1005.01 1005.76 1006.27 1007.37 1007.80 1008.74 1008.76 1009.09 1009.40 1009.67 1010.01 1010.48 1010.56 1010.64 1010.72 1010.96 1011.21 1011.29 1011.48 1011.55 1011.64 1011.71
1005.36 1005.50 1005.64 1005.51 1005.27 1005.37 1004.98 1004.93 1004.75 1004.76 1004.51 1004.48 1004.02 1003.32 1003.13 1003.52 1003.39 1003.68 1003.44 1004.02 1004.48 1004.93 1005.46 1006.16 1006.54 1007.51 1008.27 1008.72 1009.19 1009.51 1009.94 1010.33 1010.76 1011.00 1010.94 1010.87 1011.11 1011.32 1011.48 1011.67 1011.88 1011.98 1012.06 1011.84
1004.87 1005.05 1004.89 1004.62 1004.51 1004.68 1004.85 1004.93 1004.95 1005.01 1004.70 1004.35 1004.03 1003.63 1003.01 1003.20 1003.33 1003.62 1004.40 1004.69 1005.28 1005.65 1005.93 1006.71 1007.30 1007.77 1008.35 1009.09 1009.70 1009.83 1010.31 1010.56 1010.99 1011.08 1011.45 1011.85 1012.20 1012.43 1012.40 1012.52 1012.53 1012.31 1012.22 1012.02
1004.52 1004.41 1004.29 1004.23 1004.12 1004.43 1004.58 1004.50 1004.13 1004.43 1004.39 1003.98 1004.47 1003.91 1003.14 1003.75 1004.06 1004.24 1004.24 1004.92 1005.52 1005.86 1005.98 1006.70 1007.54 1008.28 1008.92 1009.46 1010.15 1010.45 1011.00 1011.35 1011.80 1012.13 1012.43 1012.62 1012.87 1013.05 1012.74 1012.71 1012.58 1012.55 1012.08 1011.75
1003.71 1003.76 1003.64 1003.37 1003.32 1003.30 1003.77 1003.80 1003.45 1003.67 1004.10 1004.15 1004.83 1003.75 1003.41 1004.14 1004.41 1004.56 1004.83 1005.46 1006.05 1006.70 1007.28 1007.85 1008.53 1009.12 1009.73 1010.46 1010.98 1011.41 1011.86 1012.17 1012.52 1012.54 1012.84 1013.04 1013.17 1012.98 1012.82 1012.91 1012.79 1012.33 1011.90 1011.55
1003.01 1003.11 1003.12 1003.06 1002.99 1003.21 1003.75 1003.97 1004.30 1004.28 1005.06 1004.61 1004.29 1004.28 1003.91 1004.23 1004.53 1004.88 1005.46 1006.01 1006.74 1007.39 1007.98 1008.77 1009.54 1010.20 1010.81 1011.39 1011.97 1012.26 1012.51 1012.75 1012.77 1012.93 1012.93 1013.00 1013.09 1013.27 1013.01 1012.88 1012.66 1012.09 1011.77 1011.38
1002.81 1003.07 1003.23 1003.27 1003.17 1003.44 1003.21 1003.83 1004.43 1004.48 1004.66 1004.52 1004.45 1004.30 1003.45 1004.10 1004.80 1005.26 1005.74 1006.33 1007.16 1008.00 1008.74 1009.55 1010.26 1010.90 1011.42 1011.93 1012.38 1012.69 1012.93 1013.06 1013.23 1013.35 1013.15 1012.96 1013.00 1012.92 1012.74 1012.28 1011.95 1011.78 1011.49 1011.35
1002.90 1003.65 1003.93 1003.78 1003.44 1003.28 1003.90 1003.74 1004.51 1004.88 1005.25 1004.80 1004.48 1004.23 1004.28 1004.27 1004.77 1005.38 1006.25 1007.07 1007.78 1008.50 1009.21 1010.01 1010.70 1011.36 1011.77 1012.18 1012.44 1012.70 1012.81 1012.78 1012.83 1012.74 1012.82 1012.74 1012.58 1012.38 1012.14 1012.13 1011.74 1011.46 1011.35 1011.02
1003.68 1004.05 1004.29 1004.51 1004.57 1004.33 1004.00 1004.06 1004.23 1004.61 1005.47 1005.62 1005.28 1004.77 1005.05 1005.00 1005.37 1006.00 1006.76 1007.64 1008.53 1009.26 1010.02 1010.54 1010.90 1011.43 1011.76 1012.05 1012.26 1012.40 1012.58 1012.62 1012.59 1012.57 1012.43 1012.26 1012.20 1012.02 1011.77 1011.52 1011.35 1011.09 1010.70 1010.38
1003.67 1005.05 1005.49 1005.34 1005.42 1005.04 1004.51 1004.62 1005.04 1005.28 1005.51 1005.34 1005.31 1005.19 1005.70 1005.84 1006.18 1006.90 1007.41 1008.52 1009.35 1010.02 1010.57 1011.10 1011.47 1011.84 1012.20 1012.43 1012.57 1012.69 1012.77 1012.70 1012.59 1012.46 1012.13 1011.89 1011.78 1011.64 1011.33 1011.03 1010.71 1010.42 1010.17 1009.95
1004.19 1006.22 1006.07 1006.27 1005.82 1005.41 1005.14 1004.96 1005.27 1005.26 1005.39 1005.09 1005.21 1005.20 1005.93 1006.33 1006.65 1007.43 1008.26 1009.10 1009.74 1010.27 1010.98 1011.41 1011.71 1011.97 1012.34 1012.53 1012.57 1012.63 1012.58 1012.49 1012.29 1012.11 1011.86 1011.57 1011.30 1011.09 1010.84 1010.61 1010.34 1010.10 1009.87 1009.57
1005.22 1006.05 1006.57 1006.53 1006.28 1005.86 1005.35 1005.21 1005.31 1005.21 1005.43 1005.41 1005.18 1005.58 1005.74 1006.37 1006.94 1007.69 1008.69 1009.77 1010.14 1010.77 1011.29 1011.74 1011.97 1012.18 1012.49 1012.58 1012.67 1012.66 1012.56 1012.35 1012.05 1011.76 1011.59 1011.33 1011.10 1010.83 1010.52 1010.23 1010.00 1009.68 1009.39 1008.98
1005.83 1006.17 1006.38 1006.53 1006.45 1006.25 1006.00 1005.84 1005.71 1005.80 1005.77 1005.74 1005.71 1005.58 1006.13 1007.02 1007.54 1008.50 1009.31 1010.15 1010.44 1011.22 1011.68 1012.06 1012.29 1012.49 1012.66 1012.71 1012.60 1012.51 1012.30 1012.19 1012.04 1011.66 1011.39 1011.25 1010.96 1010.62 1010.30 1009.95 1009.60 1009.04 1008.55 1008.09
1006.08 1006.27 1006.70 1006.87 1007.19 1006.80 1006.30 1005.56 1005.43 1005.39 1005.51 1005.50 1005.24 1005.40 1006.58 1007.31 1007.93 1008.90 1009.82 1010.56 1011.02 1011.47 1012.07 1012.38 1012.65 1012.80 1012.90 1012.91 1012.86 1012.48 1012.37 1012.21 1011.86 1011.37 1010.97 1010.74 1010.52 1010.13 1009.83 1009.47 1008.87 1008.26 1007.79 1007.42
1006.55 1006.69 1007.19 1007.50 1007.43 1006.88 1006.02 1005.95 1005.74 1005.52 1005.49 1005.61 1005.63 1005.80 1006.32 1007.05 1008.60 1009.76 1010.51 1011.06 1011.67 1012.25 1012.66 1013.02 1013.19 1013.31 1013.34 1013.28 1013.17 1013.02 1012.82 1012.53 1012.00 1011.34 1010.79 1010.60 1010.24 1009.79 1009.39 1008.85 1008.29 1007.73 1007.29 1006.57
1007.06 1007.25 1007.89 1007.76 1007.51 1006.95 1006.04 1006.14 1005.94 1005.59 1005.80 1006.13 1006.15 1006.67 1007.33 1008.34 1009.20 1010.68 1011.54 1012.18 1012.67 1013.04 1013.31 1013.64 1013.85 1013.88 1013.81 1013.66 1013.46 1013.24 1012.77 1012.30 1011.78 1011.10 1010.62 1010.39 1009.97 1009.49 1008.87 1008.31 1007.76 1007.06 1006.22 1005.43
1007.85 1007.73 1007.99 1008.31 1007.88 1007.04 1006.61 1006.53 1006.36 1006.11 1005.95 1006.75 1006.97 1007.48 1008.08 1008.78 1009.41 1011.00 1012.07 1012.87 1013.33 1013.77 1013.98 1014.04 1014.20 1014.23 1013.98 1013.69 1013.39 1012.92 1012.41 1011.94 1011.34 1010.96 1010.57 1010.22 1009.71 1009.16 1008.54 1007.91 1007.00 1006.08 1005.43 1004.76
1008.18 1008.35 1008.40 1008.58 1008.17 1007.34 1007.00 1006.88 1006.63 1006.58 1007.36 1007.40 1007.85 1008.43 1009.09 1009.74 1011.13 1012.11 1012.76 1013.36 1013.80 1013.96 1014.01 1014.11 1014.11 1013.97 1013.77 1013.41 1013.11 1012.65 1012.25 1011.67 1011.24 1010.83 1010.39 1009.80 1009.22 1008.62 1007.95 1006.90 1006.05 1005.50 1004.86 1004.17
1007.67 1008.23 1008.36 1008.77 1008.44 1007.80 1007.36 1007.15 1006.96 1007.41 1007.80 1008.09 1008.80 1009.65 1010.34 1011.14 1012.01 1012.59 1013.20 1013.52 1013.74 1013.86 1013.88 1013.87 1013.84 1013.62 1013.46 1013.28 1012.90 1012.33 1011.83 1011.41 1010.99 1010.50 1009.89 1009.24 1008.59 1007.92 1007.02 1006.40 1005.64 1004.94 1004.25 1003.57
1007.48 1007.55 1007.74 1007.91 1007.92 1007.97 1007.83 1007.66 1007.76 1007.89 1008.29 1009.23 1009.86 1010.68 1011.28 1011.95 1012.62 1013.24 1013.62 1013.84 1013.97 1014.02 1013.90 1013.73 1013.73 1013.56 1013.44 1013.15 1012.72 1012.07 1011.55 1011.11 1010.61 1010.08 1009.44 1008.78 1008.06 1007.29 1006.51 1005.86 1005.05 1004.29 1003.68 1002.95
1007.51 1007.70 1007.56 1007.78 1008.07 1008.01 1008.06 1008.23 1008.20 1008.36 1009.17 1009.93 1010.66 1011.50 1012.05 1012.73 1013.39 1013.82 1014.07 1014.21 1014.22 1014.15 1013.99 1013.94 1013.87 1013.63 1013.31 1012.92 1012.54 1012.03 1011.40 1010.89 1010.39 1009.74 1009.06 1008.35 1007.59 1006.64 1005.85 1005.23 1004.64 1003.93 1003.13 1002.52
1007.86 1007.77 1007.60 1007.55 1007.71 1007.93 1008.11 1008.45 1008.73 1009.50 1010.33 1011.03 1011.65 1012.20 1012.91 1013.40 1013.95 1014.29 1014.43 1014.47 1014.44 1014.33 1014.15 1013.94 1013.87 1013.74 1013.35 1012.82 1012.28 1011.77 1011.22 1010.66 1010.01 1009.36 1008.72 1007.98 1007.26 1006.41 1005.41 1004.71 1004.20 1003.46 1002.52 1002.04
1007.54 1007.20 1007.05 1006.96 1007.14 1007.25 1007.74 1008.50 1009.27 1009.91 1010.80 1011.53 1012.12 1012.95 1013.64 1013.96 1014.32 1014.62 1014.69 1014.77 1014.66 1014.45 1014.21 1013.89 1013.83 1013.67 1013.45 1012.99 1012.33 1011.68 1011.17 1010.47 1009.81 1009.03 1008.29 1007.67 1006.96 1006.17 1005.46 1004.55 1003.38 1002.66 1001.81 1001.47
Thickness
5621 5624 5628 5634 5633 5638 5634 5632 5635 5653 5659 5649 5654 5660 5666 5669 5672 5680 5695 5697 5702 5710 5734 5744 5726 5725 5719 5726 5723 5722 5721 5721 5721 5715 5715 5717 5718 5720 5719 5720 5720 5720 5718 5716
5613 5621 5632 5633 5631 5627 5629 5628 5639 5651 5659 5650 5656 5662 5676 5670 5676 5691 5695 5696 5700 5712 5715 5722 5719 5711 5712 5711 5709 5710 5710 5713 5714 5712 5712 5711 5713 5709 5712 5711 5712 5712 5712 5709
5620 5632 5634 5623 5627 5625 5630 5633 5639 5642 5654 5659 5653 5656 5665 5679 5677 5687 5691 5703 5704 5710 5706 5709 5718 5711 5706 5703 5703 5706 5705 5705 5708 5706 5702 5699 5698 5699 5698 5700 5701 5700 5699 5699
5620 5632 5625 5625 5626 5634 5632 5645 5643 5646 5642 5648 5651 5651 5663 5668 5677 5683 5690 5694 5703 5702 5703 5701 5705 5698 5699 5694 5699 5700 5699 5699 5700 5698 5697 5698 5698 5695 5697 5696 5695 5694 5693 5691
5625 5625 5622 5624 5635 5638 5641 5647 5648 5648 5647 5643 5651 5655 5665 5665 5668 5676 5685 5688 5692 5694 5695 5693 5694 5692 5692 5691 5691 5692 5690 5688 5685 5683 5685 5687 5684 5683 5683 5682 5679 5677 5677 5678
5625 5630 5630 5635 5641 5641 5642 5638 5636 5636 5640 5633 5645 5651 5663 5668 5673 5677 5676 5679 5681 5685 5688 5686 5687 5687 5685 5682 5680 5681 5679 5677 5676 5675 5671 5666 5663 5660 5662 5660 5659 5662 5663 5663
5616 5620 5633 5636 5630 5637 5636 5634 5628 5623 5625 5634 5635 5644 5665 5666 5670 5674 5680 5677 5678 5682 5686 5684 5679 5676 5675 5672 5669 5668 5664 5660 5659 5656 5653 5652 5650 5647 5649 5648 5649 5647 5652 5653
5602 5601 5623 5638 5634 5637 5633 5639 5634 5612 5618 5635 5629 5638 5660 5664 5667 5670 5673 5672 5671 5668 5668 5667 5664 5663 5660 5656 5654 5652 5648 5647 5645 5645 5642 5640 5639 5640 5641 5637 5637 5640 5643 5645
5605 5607 5627 5632 5639 5641 5626 5625 5635 5621 5609 5624 5633 5639 5657 5657 5656 5658 5657 5658 5655 5655 5655 5652 5648 5645 5642 5638 5634 5633 5633 5632 5633 5631 5631 5630 5628 5625 5626 5625 5624 5629 5632 5634
5614 5603 5620 5625 5633 5631 5634 5634 5619 5621 5606 5607 5621 5623 5646 5647 5642 5645 5646 5646 5645 5642 5640 5636 5633 5630 5628 5627 5624 5622 5620 5619 5617 5616 5618 5619 5617 5616 5616 5618 5619 5619 5619 5617
5620 5605 5605 5614 5619 5623 5619 5623 5614 5617 5611 5610 5612 5622 5639 5645 5644 5640 5638 5636 5633 5630 5626 5623 5620 5617 5616 5615 5614 5613 5613 5613 5612 5612 5611 5609 5607 5607 5607 5604 5605 5606 5605 5606
5603 5601 5597 5601 5606 5612 5617 5616 5621 5613 5604 5604 5607 5616 5626 5631 5633 5632 5629 5621 5617 5615 5612 5611 5612 5609 5608 5607 5606 5606 5604 5603 5602 5602 5601 5600 5599 5598 5598 5597 5596 5597 5598 5598
5602 5582 5576 5591 5597 5600 5607 5607 5601 5601 5602 5602 5597 5607 5614 5617 5616 5615 5611 5605 5602 5600 5598 5597 5597 5596 5594 5593 5592 5591 5590 5590 5590 5590 5591 5592 5591 5589 5589 5590 5591 5590 5588 5586
5596 5570 5577 5571 5580 5594 5593 5600 5599 5603 5594 5604 5600 5609 5602 5603 5606 5602 5598 5594 5593 5592 5587 5585 5586 5585 5584 5583 5583 5583 5582 5582 5582 5583 5583 5583 5583 5582 5581 5580 5579 5578 5576 5575
5584 5574 5571 5575 5582 5586 5592 5593 5593 5595 5597 5590 5601 5594 5602 5599 5598 5595 5588 5583 5583 5580 5578 5576 5576 5575 5574 5573 5572 5572 5571 5571 5573 5574 5572 5572 5571 5570 5570 5571 5569 5568 5566 5566
5572 5570 5574 5572 5577 5580 5579 5584 5587 5585 5587 5586 5588 5591 5598 5586 5586 5576 5573 5571 5572 5568 5567 5566 5565 5564 5563 5562 5562 5562 5564 5564 5563 5563 5562 5560 5559 5559 5560 5560 5559 5560 5560 5559
5567 5569 5567 5568 5561 5567 5570 5583 5584 5585 5586 5587 5585 5594 5583 5575 5573 5567 5562 5561 5559 5558 5556 5556 5554 5552 5550 5549 5549 5553 5553 5553 5554 5555 5556 5555 5553 5555 5554 5552 5554 5555 5553 5550
5559 5561 5558 5555 5558 5551 5575 5577 5577 5577 5581 5582 5584 5586 5583 5580 5565 5555 5552 5550 5547 5544 5543 5540 5538 5537 5535 5535 5535 5535 5536 5537 5539 5544 5548 5546 5547 5547 5547 5548 5548 5545 5542 5540
5553 5552 5542 5547 5550 5559 5568 5567 5568 5573 5572 5571 5571 5568 5564 5558 5554 5542 5536 5533 5530 5527 5526 5524 5522 5521 5519 5519 5520 5521 5525 5528 5531 5537 5539 5538 5539 5541 5542 5541 5539 5537 5537 5535
5542 5546 5544 5539 5539 5545 5555 5559 5564 5567 5565 5559 5559 5555 5553 5554 5554 5544 5528 5519 5515 5512 5512 5512 5509 5507 5508 5510 5512 5515 5519 5522 5528 5529 5531 5530 5532 5532 5533 5532 5533 5533 5529 5523
5531 5532 5531 5528 5535 5546 5550 5552 5557 5551 5552 5551 5550 5547 5544 5544 5529 5520 5515 5510 5506 5505 5505 5503 5502 5501 5502 5504 5506 5508 5511 5518 5521 5523 5523 5525 5527 5527 5526 5530 5531 5524 5516 5508
5531 5525 5527 5522 5526 5528 5544 5548 5549 5546 5541 5542 5538 5530 5522 5518 5514 5511 5505 5503 5501 5500 5499 5499 5497 5497 5497 5497 5500 5503 5508 5512 5515 5518 5520 5523 5524 5524 5526 5523 5519 5512 5505 5495
5530 5535 5530 5535 5535 5533 5536 5539 5537 5538 5536 5528 5525 5519 5516 5512 5505 5498 5496 5493 5492 5492 5493 5493 5490 5489 5488 5489 5494 5499 5504 5508 5511 5514 5518 5519 5520 5522 5520 5516 5510 5504 5495 5488
5527 5526 5530 5531 5528 5529 5531 5531 5533 5534 5526 5520 5515 5504 5504 5498 5492 5488 5486 5484 5483 5483 5483 5482 5479 5478 5479 5485 5488 5493 5499 5503 5507 5510 5513 5516 5516 5517 5516 5510 5500 5495 5490 5483
5519 5520 5523 5526 5526 5526 5526 5526 5524 5517 5509 5500 5498 5497 5490 5486 5480 5477 5476 5474 5474 5473 5473 5473 5471 5470 5474 5480 5485 5490 5494 5499 5504 5507 5509 5511 5510 5510 5510 5504 5495 5490 5488 5482
5518 5521 5524 5525 5529 5530 5527 5521 5514 5510 5501 5496 5492 5484 5477 5475 5471 5468 5466 5464 5463 5464 5464 5467 5467 5466 5469 5472 5479 5484 5490 5496 5500 5504 5506 5505 5504 5502 5499 5497 5496 5490 5489 5481